This demonstration page uses our WeatherBlox Daily Observations layout. Learn more.

40.92945, -100.16068

Hourly Observations for January 5, 2018

Temp ( °F °C ) Dew Point ( °F °C ) Humidity (%) Winds ( mph kmh ) Pressure ( in mb ) Visibility ( mi km ) Precip ( " mm )
12:15 am 00:15 Clear 17 -8.6 14 -9.9 90 90 WNW 5 7 30.39 1029 7 11.26538 0 0
12:35 am 00:35 Clear 16 -9 13 -10.4 90 90 W 3 6 30.39 1029 7 11.26538 0 0
12:55 am 00:55 Clear 17 -8.5 15 -9.6 92 92 W 5 7 30.39 1029 7 11.26538 0 0
1:15 am 01:15 Clear 17 -8.5 15 -9.6 92 92 WNW 3 6 30.39 1029 7 11.26538 0 0
1:35 am 01:35 Clear 17 -8.6 14 -9.8 91 91 NW 5 7 30.39 1029 7 11.26538 0 0
1:55 am 01:55 Clear 14 -9.8 12 -11.1 90 90 WNW 3 6 30.42 1030 10 16.0934 0 0
2:15 am 02:15 Clear 14 -10.2 11 -11.5 90 90 Calm 30.42 1030 10 16.0934 0 0
2:35 am 02:35 Clear 15 -9.7 12 -11 90 90 WNW 7 11 30.42 1030 10 16.0934 0 0
2:55 am 02:55 Clear 14 -10 11 -11.4 90 90 WNW 5 7 30.42 1030 10 16.0934 0 0
3:15 am 03:15 Clear 13 -10.3 11 -11.7 90 90 Calm 30.42 1030 10 16.0934 0 0
3:35 am 03:35 Clear 13 -10.4 11 -11.9 89 89 Calm 30.42 1030 10 16.0934 0 0
3:55 am 03:55 Clear 12 -11.2 9 -12.9 87 87 Calm 30.42 1030 10 16.0934 0 0
4:15 am 04:15 Clear 12 -11.1 9 -12.8 87 87 W 5 7 30.42 1030 10 16.0934 0 0
4:35 am 04:35 Clear 13 -10.8 10 -12.4 88 88 Calm 30.42 1030 10 16.0934 0 0
4:55 am 04:55 Clear 11 -11.9 7 -13.7 87 87 Calm 30.48 1032 10 16.0934 0 0
5:15 am 05:15 Mostly Cloudy 11 -11.8 8 -13.5 87 87 Calm 30.48 1032 10 16.0934 0 0
5:35 am 05:35 Cloudy with Mist and Fog 11 -11.5 9 -13 89 89 E 3 6 30.45 1031 1 1.60934 0 0
5:55 am 05:55 Cloudy with Freezing Fog 12 -11 9 -12.6 88 88 E 3 6 30.45 1031 0.25 0.402335 0 0
6:15 am 06:15 Cloudy with Freezing Fog 13 -10.6 10 -12.2 88 88 Calm 30.45 1031 0.5 0.80467 0 0
6:35 am 06:35 Partly Cloudy 12 -10.9 9 -12.7 87 87 ESE 3 6 30.45 1031 7 11.26538 0 0
6:55 am 06:55 Clear with Mist and Fog 13 -10.8 9 -12.6 87 87 Calm 30.45 1031 2.5 4.02335 0 0
7:15 am 07:15 Clear N/A N/A N/A Calm N/A 7 11.26538 0 0
7:35 am 07:35 Hazy N/A N/A N/A E 3 6 N/A 5 8.0467 0 0
7:55 am 07:55 Clear N/A N/A N/A ESE 3 6 N/A 7 11.26538 0 0
8:15 am 08:15 Sunny N/A N/A N/A Calm N/A 7 11.26538 0 0
8:35 am 08:35 Hazy N/A N/A N/A E 5 7 N/A 5 8.0467 0 0
8:55 am 08:55 Sunny 13 -10.6 10 -12.1 89 89 E 6 9 30.5 1033 10 16.0934 0 0
9:15 am 09:15 Sunny 14 -10.2 11 -11.9 88 88 E 7 11 30.48 1032 10 16.0934 0 0
9:35 am 09:35 Sunny 14 -10.1 11 -11.8 88 88 E 7 11 30.48 1032 10 16.0934 0 0
9:55 am 09:55 Partly Cloudy 14 -10 11 -11.7 88 88 E 6 9 30.5 1033 10 16.0934 0 0
10:15 am 10:15 Mostly Cloudy 15 -9.5 12 -11.2 88 88 ESE 6 9 30.5 1033 7 11.26538 0 0
10:35 am 10:35 Mostly Cloudy with Mist and Fog 15 -9.5 12 -11.1 88 88 E 6 9 30.5 1033 5 8.0467 0 0
10:55 am 10:55 Cloudy with Mist and Fog 15 -9.4 12 -11 88 88 ESE 8 13 30.5 1033 5 8.0467 0 0
11:15 am 11:15 Cloudy with Mist and Fog 15 -9.6 12 -11.3 88 88 ESE 7 11 30.5 1033 4 6.43736 0 0
11:35 am 11:35 Cloudy with Light Snow 15 -9.4 12 -10.9 89 89 E 8 13 30.5 1033 2.5 4.02335 0 0
11:55 am 11:55 Cloudy with Light Snow 15 -9.3 12 -10.9 88 88 ESE 5 7 30.5 1033 1.75 2.816345 0 0
12:15 pm 12:15 Cloudy with Light Snow 16 -9 13 -10.6 88 88 ESE 6 9 30.5 1033 2.5 4.02335 0 0
12:35 pm 12:35 Cloudy with Light Snow 16 -8.8 13 -10.5 88 88 SE 6 9 30.5 1033 3 4.82802 0 0
12:55 pm 12:55 Cloudy with Mist and Fog 17 -8.5 14 -10.1 88 88 ESE 7 11 30.45 1031 3 4.82802 0 0
1:15 pm 13:15 Cloudy with Mist and Fog 17 -8.1 14 -10 86 86 ESE 8 13 30.45 1031 4 6.43736 0 0
1:35 pm 13:35 Cloudy with Mist and Fog 17 -8.2 14 -10.2 86 86 E 8 13 30.45 1031 4 6.43736 0 0
1:55 pm 13:55 Cloudy with Mist and Fog 17 -8.2 14 -10.1 86 86 E 9 15 30.45 1031 4 6.43736 0 0
2:15 pm 14:15 Cloudy with Mist and Fog 17 -8.2 14 -10.1 86 86 ESE 7 11 30.45 1031 4 6.43736 0 0
2:35 pm 14:35 Cloudy with Mist and Fog 17 -8.2 14 -10.1 86 86 E 7 11 30.45 1031 4 6.43736 0 0
2:55 pm 14:55 Cloudy with Mist and Fog 17 -8.5 14 -10.2 88 88 E 10 17 30.45 1031 3 4.82802 0 0
3:15 pm 15:15 Cloudy with Mist and Fog 17 -8.5 14 -10.2 88 88 E 7 11 30.45 1031 3 4.82802 0 0
3:35 pm 15:35 Cloudy with Mist and Fog 17 -8.5 14 -10.1 88 88 E 9 15 30.45 1031 2.5 4.02335 0 0
3:55 pm 15:55 Cloudy with Mist and Fog 17 -8.5 14 -10.2 88 88 E 10 17 30.45 1031 2.5 4.02335 0 0
4:15 pm 16:15 Cloudy with Mist and Fog 17 -8.6 14 -10.1 89 89 E 8 13 30.48 1032 2.5 4.02335 0 0
4:35 pm 16:35 Cloudy with Mist and Fog 17 -8.5 14 -10 89 89 E 9 15 30.5 1033 2.5 4.02335 0 0
4:55 pm 16:55 Cloudy with Mist and Fog 17 -8.5 14 -10 89 89 E 12 19 30.45 1031 2.5 4.02335 0 0
5:15 pm 17:15 Cloudy with Mist and Fog 16 -8.7 14 -10.2 89 89 ESE 8 13 30.5 1033 2 3.21868 0 0
5:35 pm 17:35 Cloudy with Mist and Fog 16 -8.7 14 -10.1 90 90 E 8 13 30.5 1033 2 3.21868 0 0
5:55 pm 17:55 Cloudy with Mist and Fog 16 -8.8 13 -10.3 89 89 ESE 9 15 30.5 1033 4 6.43736 0 0
6:15 pm 18:15 Cloudy with Mist and Fog 16 -9 13 -10.5 89 89 E 8 13 30.5 1033 4 6.43736 0 0
6:35 pm 18:35 Cloudy with Mist and Fog 15 -9.2 13 -10.8 88 88 E 6 9 30.53 1034 4 6.43736 0 0
6:55 pm 18:55 Cloudy with Mist and Fog 15 -9.5 12 -11.1 88 88 E 6 9 30.5 1033 4 6.43736 0 0
7:15 pm 19:15 Cloudy with Mist and Fog 14 -10 11 -11.6 88 88 E 5 7 30.53 1034 4 6.43736 0 0
7:35 pm 19:35 Cloudy with Mist and Fog 13 -10.3 10 -12 88 88 E 5 7 30.53 1034 4 6.43736 0 0
7:55 pm 19:55 Cloudy with Mist and Fog 13 -10.5 10 -12.1 88 88 E 6 9 30.53 1034 4 6.43736 0 0
8:15 pm 20:15 Cloudy with Mist and Fog 14 -10.1 11 -11.8 88 88 E 7 11 30.53 1034 5 8.0467 0 0
8:35 pm 20:35 Cloudy 14 -10 10 -12 85 85 E 7 11 30.53 1034 7 11.26538 0 0
8:55 pm 20:55 Cloudy 13 -10.5 10 -12.5 85 85 E 7 11 30.53 1034 7 11.26538 0 0
9:15 pm 21:15 Cloudy 13 -10.6 9 -12.6 85 85 ESE 7 11 30.53 1034 7 11.26538 0 0
9:35 pm 21:35 Partly Cloudy 13 -10.8 9 -12.9 85 85 ESE 9 15 30.56 1035 10 16.0934 0 0
9:55 pm 21:55 Clear 12 -11.1 8 -13.1 85 85 ESE 7 11 30.56 1035 10 16.0934 0 0
10:15 pm 22:15 Clear 11 -11.4 8 -13.5 85 85 ESE 6 9 30.59 1036 10 16.0934 0 0
10:35 pm 22:35 Clear 11 -11.5 8 -13.5 85 85 SSE 3 6 30.59 1036 10 16.0934 0 0
10:55 pm 22:55 Clear 11 -11.9 7 -13.9 85 85 SE 5 7 30.59 1036 10 16.0934 0 0
11:15 pm 23:15 Clear 12 -11.2 8 -13.3 85 85 SE 7 11 30.59 1036 10 16.0934 0 0
11:35 pm 23:35 Clear 11 -11.4 8 -13.5 85 85 ESE 6 9 30.59 1036 10 16.0934 0 0
11:55 pm 23:55 Partly Cloudy 12 -11.3 8 -13.5 84 84 SE 6 9 30.56 1035 10 16.0934 0 0

Powered by AerisWeather